Location: Red Deer
(52.2681°N, 113.8112°W)
Time: 04:43:55
(UTC-06:00)

Gurwin Techsat 1B - Visible Passes

Search period start: 22 May 2022 00:00
Search period end: 01 June 2022 00:00
Orbit: 811 x 814 km, 98.8° (Epoch: 21 May)

Date Brightness Start Highest point End Pass type
(mag) Time Alt. Az. Time Alt. Az. Time Alt. Az.
22 May 10.6 03:04:58 10° NE 03:09:06 22° E 03:13:11 10° SE visible
22 May 8.7 04:44:13 10° NNE 04:49:31 69° WNW 04:54:47 10° SSW visible
23 May 11.0 02:42:53 10° NE 02:45:50 15° E 02:48:46 10° ESE visible
23 May 8.7 04:21:14 10° NNE 04:26:37 82° ESE 04:31:55 10° SSW visible
24 May 9.2 03:58:21 10° NNE 04:03:36 56° E 04:08:49 10° S visible
25 May 9.8 03:35:36 10° NNE 03:40:32 37° E 03:45:26 10° SSE visible
26 May 10.4 03:12:59 10° NE 03:17:23 25° E 03:21:44 10° SSE visible
27 May 10.9 02:50:43 10° NE 02:54:08 17° E 02:57:34 10° SE visible
27 May 8.7 04:29:26 10° NNE 04:34:48 87° WNW 04:40:07 10° SSW visible
28 May 11.1 02:29:23 10° ENE 02:30:49 11° E 02:32:17 10° E visible
28 May 9.0 04:06:31 10° NNE 04:11:49 64° ESE 04:17:05 10° S visible
29 May 9.6 03:43:42 10° NNE 03:48:47 43° E 03:53:48 10° S visible
30 May 10.2 03:21:03 10° NE 03:25:39 29° E 03:30:14 10° SSE visible
31 May 10.7 02:58:37 10° NE 03:02:27 20° E 03:06:15 10° SE visible
